Find XTAR-EUR

NORAD ID: 28542 Int'l Des: 2005-005 Owner: XTAR Country: US operational
HEOCIRCULAR

Current View

Loading 3D Globe...

About XTAR-EUR

XTAR-EUR (NORAD 28542) is a satellite launched Feb 12, 2005 by XTAR of US. It operates in HEO, CIRCULAR orbit with a mass of 3631.00 kg.

Upcoming Passes

Passes for default location (London). Set your location on the main map for personalized predictions.

Altitude History

Loading altitude history...

Two-Line Element Set

1 28542U 05005A 26193.50981059 -.00000234 00000-0 00000+0 0 9998
2 28542 4.4046 76.4679 0002952 24.6216 335.1849 0.98999350 78403
Epoch: Jul 12, 2026 • Age: 38 hours

Current Status

Altitude 36159.5 km
Apogee / Perigee N/A
Velocity 3.06 km/s
Sub-Earth Point -1.47°S, 44.89°W
Launch Date Feb 12, 2005
Age 21.4 years
Type other

Technical Details

Classification Payload
Mass 3631.00 kg
Dry Mass 1412.00 kg
Total Mass 3631.00 kg
Length 5.40 m
Diameter 2.80 m
Span 31.40 m
Shape Box + 2 Pan
Manufacturer LOR
Bus Type SSL-1300
Phase Status Renamed
Owner/State XTAR/US

Most Searched